EDT,Max TemperatureF,Mean TemperatureF,Min TemperatureF,Max Dew PointF,MeanDew PointF,Min DewpointF,Max Humidity, Mean Humidity, Min Humidity, Max Sea Level PressureIn, Mean Sea Level PressureIn, Min Sea Level PressureIn, Max VisibilityMiles, Mean VisibilityMiles, Min VisibilityMiles, Max Wind SpeedMPH, Mean Wind SpeedMPH, Max Gust SpeedMPH,PrecipitationIn, CloudCover, Events, WindDirDegrees
2013-6-1,79,71,64,67,62,60,94,76,54,29.84,29.78,29.68,10,10,7,16,6,26,0.17,6,Rain,211
2013-6-2,70,61,53,62,54,41,84,71,58,29.99,29.79,29.64,10,10,10,23,11,28,0.00,7,Rain,273
2013-6-3,64,54,43,44,39,35,82,57,37,30.08,30.04,30.00,10,10,10,15,8,20,0.00,2,,319
2013-6-4,70,59,48,44,41,35,83,53,39,30.20,30.16,30.10,10,10,10,9,3,,0.00,3,,62
2013-6-5,71,59,48,45,40,34,68,49,33,30.18,30.10,30.01,10,10,10,13,4,,0.00,5,,75
2013-6-6,64,60,55,52,46,39,77,63,51,30.01,29.91,29.88,10,10,10,15,8,20,0.00,6,,32
2013-6-7,61,56,51,52,49,48,89,80,68,29.92,29.90,29.87,10,10,10,10,7,,0.00,7,,12
2013-6-8,70,62,55,51,50,48,80,65,47,30.08,29.98,29.91,10,10,10,7,2,,0.00,7,,347
2013-6-9,73,64,54,53,51,47,87,61,46,30.12,30.07,29.96,10,10,9,15,5,24,0.00,6,,114
2013-6-10,69,64,59,65,61,49,100,93,54,29.96,29.83,29.74,10,5,1,10,6,,1.27,8,Rain,85
2013-6-11,80,70,62,65,62,60,100,78,56,29.88,29.84,29.78,10,8,2,15,8,23,0.00,6,Rain,294
2013-6-12,73,68,64,67,63,60,100,84,69,29.92,29.80,29.65,10,7,2,12,6,,0.18,6,Rain-Thunderstorm,140
2013-6-13,75,68,61,64,59,51,100,80,43,29.92,29.69,29.57,10,6,2,18,10,24,1.32,7,Rain,21
2013-6-14,73,65,57,54,51,45,81,61,41,30.07,30.02,29.93,10,10,10,14,8,17,0.00,2,,340
2013-6-15,75,64,54,60,56,51,93,71,50,30.08,30.01,29.92,10,10,7,12,3,20,0.00,5,Rain,244
2013-6-16,80,72,64,63,60,52,96,73,43,29.89,29.83,29.76,10,9,3,18,10,26,0.26,5,Rain,258
2013-6-17,82,70,59,60,56,53,83,63,38,29.93,29.89,29.85,10,10,10,13,5,17,0.00,3,Rain,291
2013-6-18,70,62,54,57,47,38,93,61,36,30.09,30.00,29.90,10,10,10,18,10,33,0.02,2,,26
2013-6-19,73,60,48,51,44,38,74,52,35,30.17,30.14,30.08,10,10,10,9,5,,0.00,1,,92
2013-6-20,80,66,52,53,50,47,86,56,36,30.22,30.18,30.15,10,10,10,12,3,,0.00,1,,174
2013-6-21,84,70,57,63,58,52,87,61,43,30.21,30.15,30.05,10,10,10,12,3,16,0.00,5,,168
2013-6-22,87,78,71,69,64,57,82,66,55,30.08,30.03,29.99,10,10,10,13,7,20,0.00,6,,224
2013-6-23,88,79,70,68,65,63,90,65,43,30.05,30.01,29.96,10,10,7,15,6,22,0.00,2,,221
2013-6-24,87,78,69,69,66,64,91,72,49,30.05,29.99,29.92,10,9,2,13,6,28,0.47,4,Rain-Thunderstorm,236
2013-6-25,81,72,66,70,66,64,94,83,68,29.98,29.90,29.83,10,9,2,15,6,28,0.26,6,Rain-Thunderstorm,249
2013-6-26,84,74,66,70,66,64,94,77,56,29.88,29.81,29.74,10,10,9,12,6,22,0.00,5,,217
2013-6-27,82,74,54,70,66,50,94,84,56,29.76,29.71,29.63,10,7,0,25,4,36,0.33,6,Fog-Rain-Thunderstorm,176
2013-6-28,73,68,63,66,63,61,99,87,64,29.66,29.58,29.54,10,8,2,17,7,,0.66,7,Rain-Thunderstorm,310
2013-6-29,73,68,64,63,60,55,94,79,59,29.74,29.61,29.54,10,10,7,13,5,17,0.00,7,,8
2013-6-30,78,70,62,58,54,41,75,60,46,29.96,29.85,29.75,10,10,10,16,8,29,0.00,4,,35